DLH5AC EDDM-EDDF

Flight info

Callsign DLH5AC
Flight time 0h 32m
Altitude 24000
Route GIVMI1N/26R GIVMI Y101 ERNAS T161 DEBHI DEBHI1B
Aircraft A321/M-SDE3FGHIRWY/LB1

Departure

Time 2026-05-04 19:13
Airport Munich Airport (EDDM)

Arrival

Time 2026-05-04 19:45
Airport Frankfurt Main Airport (EDDF)
Time Latitude Longitude Altitude Speed Heading
2026-05-04 18:53 48.35713 11.79273 1476 ft 0 kts 263°
2026-05-04 19:01 48.35713 11.79277 1477 ft 1 kts 263°
2026-05-04 19:01 48.35715 11.79303 1482 ft 3 kts 263°
2026-05-04 19:01 48.35718 11.79333 1475 ft 3 kts 263°
2026-05-04 19:01 48.35720 11.79363 1474 ft 3 kts 272°
2026-05-04 19:02 48.35717 11.79391 1471 ft 3 kts 300°
2026-05-04 19:02 48.35706 11.79409 1471 ft 2 kts 347°
2026-05-04 19:02 48.35695 11.79412 1471 ft 2 kts 353°
2026-05-04 19:02 48.35680 11.79415 1474 ft 1 kts 353°
2026-05-04 19:03 48.35679 11.79415 1474 ft 0 kts 353°
2026-05-04 19:04 48.35688 11.79413 1473 ft 2 kts 353°
2026-05-04 19:05 48.35703 11.79411 1471 ft 0 kts 353°
2026-05-04 19:05 48.35730 11.79411 1481 ft 9 kts
2026-05-04 19:05 48.35799 11.79448 1473 ft 12 kts 21°
2026-05-04 19:06 48.35881 11.79492 1478 ft 13 kts 17°
2026-05-04 19:06 48.35973 11.79500 1480 ft 13 kts 352°
2026-05-04 19:06 48.36031 11.79488 1483 ft 8 kts 353°
2026-05-04 19:06 48.36123 11.79473 1476 ft 18 kts 354°
2026-05-04 19:07 48.36213 11.79516 1483 ft 14 kts 64°
2026-05-04 19:07 48.36230 11.79670 1485 ft 16 kts 83°
2026-05-04 19:07 48.36242 11.79841 1485 ft 17 kts 83°
2026-05-04 19:07 48.36257 11.80027 1485 ft 19 kts 83°
2026-05-04 19:08 48.36273 11.80227 1485 ft 20 kts 83°
2026-05-04 19:08 48.36290 11.80442 1480 ft 21 kts 83°
2026-05-04 19:08 48.36301 11.80592 1485 ft 22 kts 84°
2026-05-04 19:08 48.36318 11.80829 1482 ft 23 kts 83°
2026-05-04 19:09 48.36338 11.81077 1473 ft 24 kts 83°
2026-05-04 19:09 48.36358 11.81337 1481 ft 25 kts 83°
2026-05-04 19:09 48.36379 11.81606 1481 ft 26 kts 83°
2026-05-04 19:09 48.36398 11.81861 1485 ft 21 kts 89°
2026-05-04 19:10 48.36418 11.81994 1471 ft 11 kts 36°
2026-05-04 19:10 48.36469 11.81999 1473 ft 12 kts 352°
2026-05-04 19:10 48.36587 11.81978 1481 ft 14 kts 353°
2026-05-04 19:10 48.36669 11.81955 1473 ft 7 kts 324°
2026-05-04 19:11 48.36673 11.81923 1477 ft 0 kts 263°
2026-05-04 19:12 48.36662 11.81786 1480 ft 43 kts 263°
2026-05-04 19:12 48.36596 11.80931 1475 ft 119 kts 264°
2026-05-04 19:13 48.36483 11.79410 1639 ft 160 kts 265°
2026-05-04 19:13 48.36379 11.77740 2392 ft 163 kts 265°
2026-05-04 19:13 48.36273 11.75982 2876 ft 178 kts 264°
2026-05-04 19:13 48.36143 11.73999 3187 ft 201 kts 264°
2026-05-04 19:14 48.35990 11.71814 3543 ft 219 kts 264°
2026-05-04 19:14 48.35818 11.69421 3868 ft 239 kts 268°
2026-05-04 19:14 48.36132 11.66933 4416 ft 254 kts 296°
2026-05-04 19:14 48.37052 11.64521 4835 ft 274 kts 301°
2026-05-04 19:15 48.38062 11.62060 5620 ft 278 kts 301°
2026-05-04 19:15 48.39077 11.59620 6474 ft 279 kts 300°
2026-05-04 19:15 48.40138 11.57165 7276 ft 282 kts 307°
2026-05-04 19:15 48.41658 11.55269 8043 ft 290 kts 330°
2026-05-04 19:16 48.43507 11.54009 8831 ft 293 kts 334°
2026-05-04 19:16 48.45392 11.52781 9629 ft 297 kts 333°
2026-05-04 19:16 48.47306 11.51541 10273 ft 306 kts 333°
2026-05-04 19:16 48.49332 11.50218 10479 ft 329 kts 333°
2026-05-04 19:17 48.51502 11.48793 10713 ft 348 kts 333°
2026-05-04 19:17 48.53748 11.47312 11265 ft 356 kts 333°
2026-05-04 19:17 48.56029 11.45810 11920 ft 360 kts 333°
2026-05-04 19:17 48.58336 11.44288 12599 ft 364 kts 333°
2026-05-04 19:18 48.60669 11.42745 13260 ft 368 kts 333°
2026-05-04 19:18 48.63022 11.41180 13902 ft 372 kts 333°
2026-05-04 19:18 48.65400 11.39597 14501 ft 375 kts 333°
2026-05-04 19:18 48.67794 11.38003 15115 ft 377 kts 333°
2026-05-04 19:19 48.70181 11.36319 15742 ft 378 kts 328°
2026-05-04 19:19 48.72419 11.34174 16093 ft 388 kts 323°
2026-05-04 19:19 48.74707 11.31864 16376 ft 399 kts 323°
2026-05-04 19:19 48.77024 11.29507 16885 ft 403 kts 323°
2026-05-04 19:20 48.79357 11.27132 17439 ft 405 kts 323°
2026-05-04 19:20 48.81708 11.24734 17989 ft 408 kts 323°
2026-05-04 19:20 48.84029 11.22340 18487 ft 410 kts 321°
2026-05-04 19:20 48.86200 11.19549 18913 ft 410 kts 315°
2026-05-04 19:21 48.88315 11.16611 19360 ft 413 kts 315°
2026-05-04 19:21 48.90441 11.13649 19798 ft 416 kts 315°
2026-05-04 19:21 48.92579 11.10663 20259 ft 419 kts 315°
2026-05-04 19:21 48.94734 11.07647 20707 ft 422 kts 315°
2026-05-04 19:22 48.96901 11.04612 21147 ft 425 kts 315°
2026-05-04 19:22 48.99087 11.01555 21611 ft 428 kts 315°
2026-05-04 19:22 49.01283 10.98481 22064 ft 430 kts 314°
2026-05-04 19:22 49.03490 10.95386 22506 ft 433 kts 314°
2026-05-04 19:23 49.05710 10.92264 22938 ft 435 kts 314°
2026-05-04 19:23 49.07940 10.89118 23249 ft 437 kts 314°
2026-05-04 19:23 49.10172 10.85966 23516 ft 438 kts 314°
2026-05-04 19:23 49.12410 10.82801 23773 ft 440 kts 314°
2026-05-04 19:24 49.14662 10.79613 23947 ft 442 kts 314°
2026-05-04 19:24 49.16928 10.76399 23999 ft 448 kts 314°
2026-05-04 19:24 49.19224 10.73144 23999 ft 451 kts 314°
2026-05-04 19:24 49.21494 10.69838 23994 ft 451 kts 313°
2026-05-04 19:25 49.23705 10.66440 23979 ft 450 kts 311°
2026-05-04 19:25 49.25873 10.62984 23989 ft 450 kts 310°
2026-05-04 19:25 49.27997 10.59543 23979 ft 449 kts 310°
2026-05-04 19:25 49.30141 10.56067 23980 ft 449 kts 310°
2026-05-04 19:26 49.32297 10.52594 23980 ft 450 kts 310°
2026-05-04 19:26 49.34466 10.49135 23981 ft 450 kts 311°
2026-05-04 19:26 49.36536 10.45558 23964 ft 446 kts 304°
2026-05-04 19:26 49.38358 10.41675 23511 ft 456 kts 302°
2026-05-04 19:27 49.40183 10.37688 22854 ft 456 kts 302°
2026-05-04 19:27 49.42003 10.33690 22427 ft 456 kts 302°
2026-05-04 19:27 49.43813 10.29711 21978 ft 453 kts 302°
2026-05-04 19:27 49.45613 10.25750 21512 ft 450 kts 302°
2026-05-04 19:28 49.47399 10.21817 21049 ft 448 kts 302°
2026-05-04 19:28 49.49177 10.17900 20605 ft 445 kts 302°
2026-05-04 19:28 49.50937 10.14008 20150 ft 442 kts 302°
2026-05-04 19:28 49.52687 10.10132 19701 ft 440 kts 302°
2026-05-04 19:29 49.54427 10.06276 19254 ft 437 kts 302°
2026-05-04 19:29 49.56157 10.02446 18813 ft 434 kts 302°
2026-05-04 19:29 49.57873 9.98637 18368 ft 431 kts 302°
2026-05-04 19:29 49.59576 9.94850 17897 ft 429 kts 302°
2026-05-04 19:30 49.61270 9.91082 17488 ft 427 kts 302°
2026-05-04 19:30 49.62957 9.87325 17029 ft 425 kts 302°
2026-05-04 19:30 49.64633 9.83582 16598 ft 422 kts 302°
2026-05-04 19:30 49.66293 9.79861 16169 ft 420 kts 302°
2026-05-04 19:31 49.67940 9.76165 15753 ft 417 kts 302°
2026-05-04 19:31 49.69579 9.72486 15327 ft 414 kts 302°
2026-05-04 19:31 49.71204 9.68834 14894 ft 411 kts 302°
2026-05-04 19:31 49.72797 9.65245 14493 ft 409 kts 302°
2026-05-04 19:32 49.74402 9.61632 14091 ft 406 kts 302°
2026-05-04 19:32 49.75995 9.58043 13652 ft 403 kts 302°
2026-05-04 19:32 49.77565 9.54501 13266 ft 392 kts 302°
2026-05-04 19:32 49.79065 9.51118 13064 ft 373 kts 302°
2026-05-04 19:33 49.80509 9.47864 12755 ft 358 kts 302°
2026-05-04 19:33 49.81892 9.44737 12400 ft 346 kts 301°
2026-05-04 19:33 49.83230 9.41699 12042 ft 337 kts 301°
2026-05-04 19:33 49.84655 9.38847 11683 ft 345 kts 314°
2026-05-04 19:34 49.86768 9.36677 11309 ft 380 kts 332°
2026-05-04 19:34 49.89145 9.35017 10998 ft 365 kts 334°
2026-05-04 19:34 49.91389 9.33502 10748 ft 340 kts 334°
2026-05-04 19:34 49.93490 9.32096 10504 ft 319 kts 334°
2026-05-04 19:35 49.95471 9.30783 10212 ft 302 kts 334°
2026-05-04 19:35 49.97387 9.29522 9746 ft 297 kts 334°
2026-05-04 19:35 49.99284 9.28267 9351 ft 295 kts 334°
2026-05-04 19:35 50.01162 9.27014 8927 ft 293 kts 334°
2026-05-04 19:36 50.03028 9.25763 8564 ft 291 kts 334°
2026-05-04 19:36 50.04885 9.24515 8217 ft 290 kts 334°
2026-05-04 19:36 50.06731 9.23259 7910 ft 289 kts 334°
2026-05-04 19:36 50.08568 9.21994 7582 ft 288 kts 334°
2026-05-04 19:37 50.10369 9.20663 7257 ft 285 kts 325°
2026-05-04 19:37 50.11736 9.18533 6947 ft 277 kts 297°
2026-05-04 19:37 50.12462 9.15782 6636 ft 274 kts 285°
2026-05-04 19:37 50.13032 9.12946 6383 ft 274 kts 284°
2026-05-04 19:38 50.13584 9.10106 6130 ft 274 kts 284°
2026-05-04 19:38 50.14127 9.07262 5873 ft 273 kts 284°
2026-05-04 19:38 50.14653 9.04466 5619 ft 272 kts 284°
2026-05-04 19:38 50.15165 9.01599 5366 ft 270 kts 279°
2026-05-04 19:39 50.15210 8.98765 5121 ft 262 kts 258°
2026-05-04 19:39 50.14688 8.96135 5007 ft 248 kts 248°
2026-05-04 19:39 50.14120 8.93704 5031 ft 228 kts 248°
2026-05-04 19:39 50.13601 8.91479 5011 ft 211 kts 248°
2026-05-04 19:40 50.13096 8.89326 5013 ft 208 kts 248°
2026-05-04 19:40 50.12605 8.87239 5009 ft 208 kts 248°
2026-05-04 19:40 50.12101 8.85099 4849 ft 207 kts 248°
2026-05-04 19:40 50.11609 8.83008 4581 ft 204 kts 248°
2026-05-04 19:41 50.11112 8.80908 4314 ft 210 kts 249°
2026-05-04 19:41 50.10614 8.78775 4008 ft 210 kts 249°
2026-05-04 19:41 50.10115 8.76645 3684 ft 208 kts 249°
2026-05-04 19:41 50.09617 8.74553 3404 ft 204 kts 249°
2026-05-04 19:42 50.09135 8.72529 3129 ft 201 kts 250°
2026-05-04 19:42 50.08658 8.70494 2855 ft 197 kts 250°
2026-05-04 19:42 50.08200 8.68547 2620 ft 182 kts 251°
2026-05-04 19:42 50.07779 8.66777 2344 ft 172 kts 251°
2026-05-04 19:43 50.07381 8.65099 2102 ft 158 kts 251°
2026-05-04 19:43 50.07009 8.63558 1854 ft 147 kts 251°
2026-05-04 19:43 50.06648 8.62069 1667 ft 147 kts 252°
2026-05-04 19:43 50.06301 8.60595 1458 ft 144 kts 252°
2026-05-04 19:44 50.05959 8.59145 1240 ft 141 kts 251°
2026-05-04 19:44 50.05626 8.57734 1012 ft 137 kts 251°
2026-05-04 19:44 50.05291 8.56336 821 ft 136 kts 251°
2026-05-04 19:44 50.04968 8.54968 639 ft 136 kts 250°
2026-05-04 19:45 50.04643 8.53610 429 ft 136 kts 250°
2026-05-04 19:45 50.04326 8.52294 351 ft 118 kts 249°
2026-05-04 19:45 50.04107 8.51393 329 ft 53 kts 249°
2026-05-04 19:45 50.03990 8.51038 326 ft 34 kts 229°
2026-05-04 19:46 50.03847 8.50843 328 ft 16 kts 205°
2026-05-04 19:46 50.03785 8.50908 333 ft 12 kts 92°
2026-05-04 19:46 50.03821 8.51080 334 ft 21 kts 68°
2026-05-04 19:46 50.03883 8.51341 331 ft 30 kts 70°
2026-05-04 19:47 50.03956 8.51639 333 ft 31 kts 69°
2026-05-04 19:47 50.04030 8.51958 335 ft 31 kts 69°
2026-05-04 19:47 50.04106 8.52275 348 ft 31 kts 69°
2026-05-04 19:47 50.04180 8.52581 351 ft 30 kts 70°
2026-05-04 19:48 50.04252 8.52887 355 ft 30 kts 70°
2026-05-04 19:48 50.04324 8.53189 362 ft 29 kts 69°
2026-05-04 19:48 50.04387 8.53458 374 ft 24 kts 75°
2026-05-04 19:48 50.04412 8.53732 375 ft 31 kts 83°
2026-05-04 19:49 50.04435 8.54079 375 ft 33 kts 84°
2026-05-04 19:49 50.04452 8.54416 371 ft 29 kts 88°
2026-05-04 19:49 50.04382 8.54692 368 ft 27 kts 134°
2026-05-04 19:49 50.04234 8.54817 357 ft 23 kts 160°
2026-05-04 19:50 50.04119 8.54882 356 ft 14 kts 160°
2026-05-04 19:50 50.04082 8.54903 353 ft 0 kts 160°
2026-05-04 19:50 50.04078 8.54906 351 ft 3 kts 161°
2026-05-04 19:51 50.04041 8.54927 356 ft 9 kts 158°
2026-05-04 19:51 50.03955 8.54978 356 ft 16 kts 160°
2026-05-04 19:51 50.03861 8.55048 359 ft 14 kts 135°
2026-05-04 19:51 50.03864 8.55180 350 ft 13 kts 69°
2026-05-04 19:52 50.03900 8.55334 355 ft 18 kts 70°
2026-05-04 19:52 50.03949 8.55528 351 ft 19 kts 69°
2026-05-04 19:52 50.03991 8.55709 351 ft 16 kts 70°
2026-05-04 19:52 50.04024 8.55847 350 ft 12 kts 70°
2026-05-04 19:53 50.04055 8.55947 355 ft 9 kts 46°
2026-05-04 19:53 50.04103 8.55961 360 ft 9 kts 348°
2026-05-04 19:53 50.04193 8.55921 353 ft 15 kts 359°
2026-05-04 19:53 50.04284 8.55957 355 ft 11 kts 357°
2026-05-04 19:54 50.04360 8.55926 360 ft 12 kts 356°
2026-05-04 19:54 50.04422 8.55986 356 ft 10 kts 64°
2026-05-04 19:54 50.04445 8.56082 359 ft 9 kts 69°
2026-05-04 19:54 50.04464 8.56160 359 ft 7 kts 70°
2026-05-04 19:55 50.04476 8.56201 358 ft 5 kts 54°
2026-05-04 19:55 50.04506 8.56212 359 ft 4 kts 347°
2026-05-04 19:55 50.04533 8.56217 363 ft 3 kts 30°
2026-05-04 19:55 50.04538 8.56223 363 ft 0 kts 35°